MUVR

Juan Gualberto Gomez International Airport

ICAO Code MUVR
IATA Code VRA
Name Juan Gualberto Gomez International Airport
Location Varadero, Matanzas, CU
Elevation 210 Feet / 64 Meters
Latitude 23.03440094
Longitude -81.43530273
METAR MUVR 090950Z 12004KT 7000 1000SW R06/0550V1000N BCFG FEW030 21/21 Q1018
Extra information Display Charts and CFS
Display NOTAMS
Runway Length Width Surface Elevation
06 11490 ft 148 ft ASP 210 ft
24 11490 ft 148 ft ASP 210 ft